Location: Byhalia Creek
(34.8270°N, 89.8040°W)
Time: 17:25:37
(UTC+00:00)

USA 234 - Pass Details

Date: 22 April 2026
Orbit: 1102 x 1106 km, 123.0° (Epoch: 4 January)

Event Time Altitude Azimuth Distance (km) Brightness Sun altitude
Rises 02:20:23 0° 39° (NE) 3,924 6.1 -20.3°
Reaches altitude 10° 02:22:54 10° 35° (NE) 2,964 5.5 -20.8°
Maximum altitude 02:29:16 57° 319° (NW) 1,284 3.9 -21.8°
Drops below altitude 10° 02:35:37 10° 243° (WSW) 2,957 5.8 -22.9°
Sets 02:38:08 0° 239° (WSW) 3,913 6.5 -23.3°
